Meath Environmental Platform

Observations

Time Sensor AQI SAQ Temp °C Hum % Pres Pa CO μg/m³ H₂S μg/m³ NO μg/m³ NO₂ μg/m³ O₃ μg/m³ SO₂ μg/m³ CO₂e PPM VOC PPM PM1 μg/m³ PM2.5 μg/m³ PM4 μg/m³ PM10 μg/m³ TPS µm
Thursday 13 August 2026
10:51 Trim Market St 2 28.9 53 56,758 0 0 0.63 12.61 48.76 0 0 2.32 2.44
10:50 Trim Patrick St 1 28.9 53 70,484 0 1.66 0.79 13.32 60.53 14.28 2.86 7.72 8.5
10:49 Trim Patrick St 1 28.9 53 70,433 0 0.27 0.81 13.05 60.92 14.1 2.86 7.72 8.5
10:49 Trim Market St 2 28.9 53 56,676 0 0 0.58 13.05 57.04 0 0.71 2.82 3.18
10:48 Trim Patrick St 1 28.9 53 70,394 0 0.27 0.84 12.87 59.12 14.21 2.86 6.97 7.67
10:48 Trim Market St 2 28.9 53 56,582 0 0 0.68 11.69 48.76 0 0.71 2.82 3.17
10:47 Trim Patrick St 1 29 53 70,374 0 1.2 0.8 13.34 54.64 14.63 3.71 7.74 8.51
10:47 Trim Market St 2 29 53 56,556 0 0 0.69 12.56 51.1 0 1.43 2.82 3.17
10:46 Trim Patrick St 1 29.1 53 70,317 0 2.21 0.78 13.53 57.71 14.28 4.57 10.03 11.03
10:46 Trim Market St 2 29 53 56,508 0 0 0.71 12.34 41.62 0 0.71 2.83 3.17
10:45 Trim Patrick St 1 29.1 53 70,243 0 0.41 0.74 13.48 58.35 14.19 2.86 7.77 8.54
10:44 Trim Patrick St 1 29.2 52 70,140 0 0 0.72 12.47 58.72 14.34 2.86 7.04 7.74
10:44 Trim Market St 2 29.1 53 56,325 0 0 0.77 12.22 37.88 0 0.71 2.83 3.16
10:43 Trim Patrick St 1 29.3 52 70,035 0 0 0.71 12.35 57.14 14.1 2.86 8.58 9.44
10:43 Trim Market St 2 29.2 53 56,344 0 0 0.7 12.4 22.62 0 0 2.32 2.44
10:42 Trim Patrick St 1 29.4 52 69,960 0 0 0.73 12.31 56.33 14.22 2.86 7.83 8.61
10:41 Trim Patrick St 1 29.5 52 69,919 0 0 0.78 12.09 57.18 14.29 2.86 7.84 8.62
10:41 Trim Market St 2 29.2 53 56,382 0 0 0.69 13.15 45.75 0 1.43 4.36 5.35
10:40 Trim Patrick St 1 29.6 51 69,903 0 0 0.78 12.04 43.7 13.72 2.86 7.1 7.82
10:39 Trim Patrick St 1 29.6 51 69,877 0 0 0.82 11.78 47.71 13.83 2 6.33 6.96